This demonstration page uses our WeatherBlox Daily Observations layout. Learn more.

Left ArrowRight Arrow

Hourly Observations for September 3, 2015

Temp ( °F °C ) Dew Point ( °F °C ) Humidity (%) Winds ( mph kmh ) Pressure ( in mb ) Visibility ( mi km ) Precip ( " mm )
12:53 am 00:53 Clear 68 20 67 19.4 96 96 Calm 30.03 1017 7 11.26538 0 0
1:53 am 01:53 Clear with Mist and Fog 68 20 66 18.9 93 93 Calm 30.01 1016 6 9.65604 0 0
2:53 am 02:53 Clear with Mist and Fog 68 20 66 18.9 93 93 Calm 30 1016 5 8.0467 0 0
3:53 am 03:53 Clear with Mist and Fog 67 19.4 66 18.9 97 97 Calm 30 1016 4 6.43736 0 0
4:40 am 04:40 Clear with Mist and Fog 67 19.4 66 18.9 97 97 Calm 30.03 1017 2.5 4.02335 0 0
4:53 am 04:53 Clear with Mist and Fog 67 19.4 65 18.3 93 93 Calm 30.01 1016 2.5 4.02335 0 0
5:07 am 05:07 Clear with Mist and Fog 66 18.9 65 18.3 96 96 Calm 30.03 1017 3 4.82802 0 0
5:53 am 05:53 Clear with Mist and Fog 66 18.9 65 18.3 96 96 Calm 30.01 1016 4 6.43736 0 0
6:17 am 06:17 Clear with Mist and Fog 66 18.9 65 18.3 96 96 Calm 30.03 1017 2.5 4.02335 0 0
6:28 am 06:28 Clear with Mist and Fog 66 18.9 64 17.8 93 93 Calm 30.03 1017 3 4.82802 0 0
6:44 am 06:44 Clear with Mist and Fog 66 18.9 65 18.3 96 96 Calm 30.03 1017 2 3.21868 0 0
6:53 am 06:53 Clear with Mist and Fog 66 18.9 65 18.3 96 96 Calm 30.02 1017 2.5 4.02335 0 0
7:06 am 07:06 Clear with Mist and Fog 66 18.9 65 18.3 96 96 Calm 30.03 1017 4 6.43736 0 0
7:19 am 07:19 Sunny with Mist and Fog 65 18.3 64 17.8 97 97 Calm 30.03 1017 1.75 2.816345 0 0
7:31 am 07:31 Sunny with Mist and Fog 66 18.9 65 18.3 96 96 Calm 30.06 1018 2.5 4.02335 0 0
7:42 am 07:42 Sunny with Mist and Fog 66 18.9 65 18.3 96 96 Calm 30.06 1018 3 4.82802 0 0
7:49 am 07:49 Sunny with Mist and Fog 66 19 64 18 94 94 Calm 30.06 1018 1.75 2.816345 0 0
7:53 am 07:53 Sunny with Mist and Fog 66 18.9 65 18.3 96 96 Calm 30.04 1017 1.5 2.41401 0 0
7:58 am 07:58 Sunny with Mist and Fog 66 18.9 65 18.3 96 96 Calm 30.06 1018 2 3.21868 0 0
8:14 am 08:14 Sunny with Mist and Fog 68 20 66 18.9 93 93 Calm 30.06 1018 3 4.82802 0 0
8:53 am 08:53 Sunny with Mist and Fog 73 22.8 70 21.1 90 90 Calm 30.04 1017 3 4.82802 0 0
9:53 am 09:53 Hazy 77 25 71 21.7 82 82 VRB 3 6 30.04 1017 6 9.65604 0 0
10:53 am 10:53 Sunny 82 27.8 71 21.7 69 69 Calm 30.03 1017 8 12.87472 0 0
11:53 am 11:53 Sunny 87 30.6 68 20 53 53 undefined N/A 30.02 1017 10 16.0934 0 0
12:53 pm 12:53 Mostly Cloudy 89 31.7 68 20 50 50 VRB 6 9 30.01 1016 10 16.0934 0 0
1:53 pm 13:53 Mostly Cloudy 91 32.8 67 19.4 45 45 W 5 7 29.99 1016 10 16.0934 0 0
2:53 pm 14:53 Sunny 90 32.2 65 18.3 44 44 VRB 3 6 29.97 1015 10 16.0934 0 0
3:53 pm 15:53 Partly Cloudy 91 32.8 66 18.9 44 44 VRB 5 7 29.95 1014 10 16.0934 0 0
4:53 pm 16:53 Mostly Sunny 91 32.8 65 18.3 42 42 VRB 7 11 29.93 1014 10 16.0934 0 0
5:53 pm 17:53 Sunny 91 32.8 64 17.8 41 41 W 7 11 29.93 1013 10 16.0934 0 0
6:53 pm 18:53 Sunny 89 31.7 65 18.3 45 45 VRB 6 9 29.92 1013 10 16.0934 0 0
7:53 pm 19:53 Sunny 78 25.6 70 21.1 76 76 Calm 29.93 1014 10 16.0934 0 0
8:53 pm 20:53 Clear 73 22.8 69 20.6 87 87 Calm 29.93 1014 10 16.0934 0 0
9:53 pm 21:53 Clear 71 21.7 68 20 90 90 Calm 29.95 1014 9 14.48406 0 0
10:53 pm 22:53 Clear 71 21.7 68 20 90 90 Calm 29.96 1015 7 11.26538 0 0
11:53 pm 23:53 Clear with Mist and Fog 70 21.1 68 20 93 93 Calm 29.97 1015 6 9.65604 0 0

Powered by AerisWeather